TimeMST,TemperatureF,Dew PointF,Humidity,Sea Level PressureIn,VisibilityMPH,Wind Direction,Wind SpeedMPH,Gust SpeedMPH,PrecipitationIn,Events,Conditions,WindDirDegrees,DateUTC
12:55 AM,28.9,26.1,89,29.83,10.0,WNW,6.9,-,N/A,,Clear,290,2012-12-02 07:55:00
1:55 AM,28.0,25.0,88,29.83,10.0,Calm,Calm,-,N/A,,Clear,0,2012-12-02 08:55:00
2:55 AM,27.0,25.0,92,29.83,10.0,Calm,Calm,-,N/A,,Clear,0,2012-12-02 09:55:00
3:55 AM,28.9,27.0,92,29.83,10.0,West,6.9,-,N/A,,Clear,280,2012-12-02 10:55:00
4:55 AM,28.0,25.0,88,29.85,10.0,West,3.5,-,N/A,,Clear,270,2012-12-02 11:55:00
5:55 AM,28.0,25.0,88,29.85,10.0,Calm,Calm,-,N/A,,Clear,0,2012-12-02 12:55:00
6:55 AM,30.9,28.0,89,29.83,10.0,Calm,Calm,-,N/A,,Clear,0,2012-12-02 13:55:00
7:55 AM,35.1,28.9,78,29.82,10.0,Calm,Calm,-,N/A,,Clear,0,2012-12-02 14:55:00
8:55 AM,43.0,33.1,68,29.80,10.0,Calm,Calm,-,N/A,,Clear,0,2012-12-02 15:55:00
9:55 AM,50.0,35.1,57,29.77,10.0,Calm,Calm,-,N/A,,Clear,0,2012-12-02 16:55:00
10:55 AM,60.1,30.9,33,29.68,10.0,SW,5.8,-,N/A,,Clear,220,2012-12-02 17:55:00
11:55 AM,63.0,32.0,31,29.63,10.0,South,6.9,-,N/A,,Clear,170,2012-12-02 18:55:00
12:55 PM,68.0,30.9,25,29.59,10.0,South,15.0,-,N/A,,Clear,190,2012-12-02 19:55:00
1:55 PM,66.9,32.0,27,29.53,10.0,South,13.8,-,N/A,,Clear,180,2012-12-02 20:55:00
2:55 PM,66.0,32.0,28,29.51,10.0,SSW,16.1,-,N/A,,Clear,200,2012-12-02 21:55:00
3:55 PM,63.0,30.0,29,29.48,10.0,South,17.3,25.3,N/A,,Clear,180,2012-12-02 22:55:00
4:55 PM,62.1,30.0,30,29.47,10.0,South,20.7,28.8,N/A,,Clear,190,2012-12-02 23:55:00
5:55 PM,60.1,28.0,30,29.45,10.0,SSW,20.7,29.9,N/A,,Clear,200,2012-12-03 00:55:00
6:55 PM,62.1,26.1,25,29.42,10.0,SSW,26.5,33.4,N/A,,Clear,210,2012-12-03 01:55:00
7:55 PM,62.1,27.0,26,29.40,10.0,SW,17.3,27.6,N/A,,Clear,220,2012-12-03 02:55:00
8:55 PM,61.0,27.0,27,29.38,10.0,SSW,21.9,28.8,N/A,,Clear,210,2012-12-03 03:55:00
9:55 PM,60.1,26.1,27,29.36,10.0,SW,18.4,26.5,N/A,,Clear,220,2012-12-03 04:55:00
10:55 PM,61.0,25.0,25,29.36,10.0,NW,10.4,17.3,N/A,,Clear,310,2012-12-03 05:55:00
11:55 PM,59.0,26.1,28,29.38,10.0,WSW,12.7,-,N/A,,Clear,250,2012-12-03 06:55:00